This is the latest recevied weather packets stored in our database for station/object VK4AB-13. If no packets are shown the sender has not sent any weather packets the latest 10 day(s).
| Time | Temp. | Humidity | Pressure | Rain* | Wind** | Luminosity | Snow |
|---|---|---|---|---|---|---|---|
| 1777586036 | 18.33° C | 91% | 1024.9 hPa | 0 mm | - | 141 W/m² | - |
| 1777585736 | 18.33° C | 93% | 1024.9 hPa | 0 mm | - | 118 W/m² | - |
| 1777585436 | 18.33° C | 93% | 1024.9 hPa | 0 mm | - | 146 W/m² | - |
| 1777585136 | 17.78° C | 93% | 1024.8 hPa | 0 mm | - | 197 W/m² | - |
| 1777584836 | 17.78° C | 93% | 1024.7 hPa | 0 mm | - | 109 W/m² | - |
| 1777584536 | 17.78° C | 93% | 1024.6 hPa | 0 mm | - | 74 W/m² | - |
| 1777584236 | 17.78° C | 93% | 1024.6 hPa | 0 mm | - | 70 W/m² | - |
| 1777583936 | 17.78° C | 93% | 1024.6 hPa | 0 mm | - | 53 W/m² | - |
| 1777583636 | 17.78° C | 93% | 1024.5 hPa | 0 mm | - | 40 W/m² | - |
| 1777583336 | 17.78° C | 92% | 1024.6 hPa | 0 mm | - | 21 W/m² | - |
| 1777583036 | 17.78° C | 92% | 1024.5 hPa | 0 mm | - | 19 W/m² | - |
| 1777582736 | 17.78° C | 92% | 1024.5 hPa | 0 mm | - | 14 W/m² | - |
| 1777582436 | 17.78° C | 92% | 1024.5 hPa | 0 mm | - | 12 W/m² | - |
| 1777582136 | 17.78° C | 92% | 1024.5 hPa | 0 mm | - | 16 W/m² | - |
| 1777581836 | 17.78° C | 92% | 1024.4 hPa | 0 mm | - | 16 W/m² | - |
| 1777581536 | 17.78° C | 92% | 1024.4 hPa | 0 mm | - | 14 W/m² | - |
| 1777581236 | 17.78° C | 92% | 1024.4 hPa | 0 mm | - | 11 W/m² | - |
| 1777580936 | 17.78° C | 92% | 1024.3 hPa | 0 mm | - | 9 W/m² | - |
| 1777580636 | 17.78° C | 92% | 1024.3 hPa | 0 mm | - | 5 W/m² | - |
| 1777580336 | 17.78° C | 92% | 1024.3 hPa | 0 mm | - | 0 W/m² | - |
| 1777580036 | 17.78° C | 92% | 1024.4 hPa | 0 mm | - | 0 W/m² | - |
| 1777579736 | 17.78° C | 92% | 1024.4 hPa | 0 mm | - | 0 W/m² | - |
| 1777579436 | 17.78° C | 92% | 1024.3 hPa | 0 mm | - | 0 W/m² | - |
| 1777579136 | 17.78° C | 92% | 1024.1 hPa | 0 mm | - | 0 W/m² | - |
| 1777578836 | 17.78° C | 92% | 1024.1 hPa | 0 mm | - | 0 W/m² | - |
* Rain latest hour (hover to see other rain measurements)
** Current wind speed in m/s (hover to see current wind gust speed)